Weather History for Oscoda, MI

Change the Weather History Date:

Tuesday, May 7, 2013

  Actual Average Record
Temperature  
Mean Temperature 50 °F -  
Max Temperature 66 °F 59 °F 84 °F (2000)
Min Temperature 33 °F 40 °F 28 °F (2007)
Degree Days  
Heating Degree Days 16    
Moisture  
Dew Point 34 °F    
Average Humidity 52    
Maximum Humidity 82    
Minimum Humidity 31    
Precipitation  
Precipitation 0.00 in - - ()
Sea Level Pressure  
Sea Level Pressure 30.07 in    
Wind  
Wind Speed 3 mph (ENE)    
Max Wind Speed 9 mph    
Max Gust Speed -    
Visibility 10 miles    
Events      
Averages and records for this station are not official NWS values.
T = Trace of Precipitation, MM = Missing Value Source: NWS Daily Summary

Daily Weather History Graph

Daily Weather History Graph

Search for Another Location

Airport:

Trip Planner

Search our weather history database for the weather conditions in past years. The results will help you decide how hot, cold, wet, or windy it might be!

Date:

Astronomy

May. 07, 2013 Rise Set
Actual Time 6:15 AM EDT 8:45 PM EDT
Civil Twilight 5:42 AM EDT 9:18 PM EDT
Nautical Twilight 5:01 AM EDT 9:59 PM EDT
Astronomical Twilight 4:15 AM EDT 10:46 PM EDT
Moon 4:54 AM EDT (5/7) 6:40 PM EDT (5/7)
Length of Visible Light 15h 35m
Length of Day
14h 29m
Waning Crescent, 5% of the Moon is Illuminated
May 7
Waning Crescent
May 9
New
May 18
First Quarter
May 25
Full
May 31
Last Quarter

Hourly Weather History & Observations

Time (EDT) Temp. Windchill Dew Point Humidity Pressure Visibility Wind Dir Wind Speed Gust Speed Precip Events Conditions
12:14 AM 40.5 °F - 31.5 °F 70% 30.06 in 10.0 mi Calm Calm - N/A   Clear
12:34 AM 40.3 °F 37.1 °F 32.0 °F 72% 30.06 in 10.0 mi NW 4.6 mph - N/A   Clear
12:54 AM 42.4 °F 40.7 °F 32.2 °F 67% 30.06 in 10.0 mi North 3.5 mph - N/A   Clear
1:14 AM 41.0 °F - 31.6 °F 69% 30.06 in 10.0 mi Calm Calm - N/A   Clear
1:34 AM 39.6 °F 36.3 °F 31.6 °F 73% 30.06 in 10.0 mi North 4.6 mph - N/A   Clear
1:54 AM 40.1 °F - 31.6 °F 72% 30.06 in 10.0 mi Calm Calm - N/A   Clear
2:14 AM 39.4 °F - 31.3 °F 73% 30.05 in 10.0 mi Calm Calm - N/A   Clear
2:34 AM 39.2 °F - 31.1 °F 73% 30.05 in 10.0 mi Calm Calm - N/A   Clear
2:54 AM 37.6 °F - 30.7 °F 76% 30.06 in 10.0 mi Calm Calm - N/A   Clear
3:14 AM 36.0 °F 33.3 °F 30.6 °F 81% 30.05 in 10.0 mi WSW 3.5 mph - N/A   Clear
3:34 AM 37.4 °F - 30.2 °F 75% 30.05 in 10.0 mi Calm Calm - N/A   Clear
3:54 AM 36.3 °F - 30.0 °F 78% 30.05 in 10.0 mi Calm Calm - N/A   Clear
4:14 AM 35.1 °F - 29.5 °F 80% 30.05 in 10.0 mi Calm Calm - N/A   Clear
4:34 AM 35.1 °F - 29.3 °F 80% 30.05 in 10.0 mi Calm Calm - N/A   Clear
4:54 AM 36.9 °F - 29.3 °F 74% 30.05 in 10.0 mi Calm Calm - N/A   Clear
5:14 AM 36.9 °F - 29.1 °F 74% 30.05 in 10.0 mi Calm Calm - N/A   Clear
5:34 AM 36.7 °F - 29.1 °F 74% 30.06 in 10.0 mi Calm Calm - N/A   Clear
5:54 AM 33.8 °F - 28.8 °F 82% 30.06 in 10.0 mi Calm Calm - N/A   Clear
6:14 AM 34.5 °F - 29.1 °F 81% 30.06 in 10.0 mi Calm Calm - N/A   Clear
6:34 AM 35.4 °F - 30.2 °F 81% 30.06 in 10.0 mi Calm Calm - N/A   Clear
6:54 AM 38.1 °F 34.6 °F 30.4 °F 74% 30.07 in 10.0 mi NNW 4.6 mph - N/A   Clear
7:14 AM 39.9 °F - 32.2 °F 74% 30.08 in 10.0 mi Calm Calm - N/A   Clear
7:34 AM 42.8 °F - 32.9 °F 68% 30.08 in 10.0 mi Calm Calm - N/A   Clear
7:54 AM 46.2 °F - 34.0 °F 62% 30.09 in 10.0 mi Calm Calm - N/A   Clear
8:14 AM 48.9 °F - 37.2 °F 64% 30.09 in 10.0 mi Calm Calm - N/A   Clear
8:34 AM 51.6 °F - 40.3 °F 65% 30.09 in 10.0 mi North 3.5 mph - N/A   Clear
8:54 AM 54.7 °F - 41.9 °F 62% 30.10 in 10.0 mi NNE 3.5 mph - N/A   Clear
9:14 AM 56.8 °F - 41.5 °F 57% 30.10 in 10.0 mi East 3.5 mph - N/A   Clear
9:34 AM 58.3 °F - 40.5 °F 52% 30.10 in 10.0 mi ENE 4.6 mph - N/A   Clear
9:54 AM 58.5 °F - 39.2 °F 49% 30.11 in 10.0 mi East 4.6 mph - N/A   Clear
10:14 AM 58.6 °F - 39.7 °F 49% 30.11 in 10.0 mi East 4.6 mph - N/A   Clear
10:34 AM 59.2 °F - 39.6 °F 48% 30.11 in 10.0 mi East 3.5 mph - N/A   Clear
10:54 AM 62.2 °F - 34.5 °F 36% 30.11 in 10.0 mi NE 9.2 mph - N/A   Clear
11:14 AM 62.6 °F - 34.9 °F 36% 30.11 in 10.0 mi NE 6.9 mph - N/A   Clear
11:34 AM 64.4 °F - 35.1 °F 34% 30.10 in 10.0 mi NE 6.9 mph - N/A   Clear
11:54 AM 65.8 °F - 34.2 °F 31% 30.10 in 10.0 mi ENE 8.1 mph - N/A   Clear
12:14 PM 66.2 °F - 34.7 °F 31% 30.10 in 10.0 mi ENE 8.1 mph - N/A   Clear
12:34 PM 66.0 °F - 35.1 °F 32% 30.10 in 10.0 mi ENE 9.2 mph - N/A   Clear
12:54 PM 63.1 °F - 39.2 °F 41% 30.10 in 10.0 mi East 9.2 mph - N/A   Clear
1:14 PM 62.2 °F - 38.8 °F 42% 30.10 in 10.0 mi East 9.2 mph - N/A   Clear
1:34 PM 61.7 °F - 38.8 °F 43% 30.10 in 10.0 mi East 9.2 mph - N/A   Clear
1:54 PM 61.7 °F - 39.0 °F 43% 30.10 in 10.0 mi East 5.8 mph - N/A   Clear
2:14 PM 63.0 °F - 39.0 °F 41% 30.09 in 10.0 mi ENE 6.9 mph - N/A   Clear
2:34 PM 63.3 °F - 38.7 °F 40% 30.09 in 10.0 mi East 5.8 mph - N/A   Clear
2:54 PM 64.6 °F - 37.0 °F 36% 30.09 in 10.0 mi East 6.9 mph - N/A   Clear
3:13 PM 66.0 °F - 37.4 °F 35% 30.08 in 10.0 mi East 6.9 mph - N/A   Clear
3:34 PM 66.9 °F - 36.9 °F 33% 30.08 in 10.0 mi East 5.8 mph - N/A   Clear
3:54 PM 65.8 °F - 38.7 °F 37% 30.07 in 10.0 mi East 6.9 mph - N/A   Clear
4:13 PM 65.1 °F - 37.4 °F 36% 30.06 in 10.0 mi East 6.9 mph - N/A   Clear
4:34 PM 64.6 °F - 35.8 °F 34% 30.06 in 10.0 mi East 8.1 mph - N/A   Clear
4:54 PM 64.6 °F - 35.4 °F 34% 30.06 in 10.0 mi East 6.9 mph - N/A   Clear
5:14 PM 64.2 °F - 34.3 °F 33% 30.05 in 10.0 mi East 6.9 mph - N/A   Clear
5:34 PM 64.4 °F - 34.5 °F 33% 30.05 in 10.0 mi East 6.9 mph - N/A   Clear
5:54 PM 63.9 °F - 35.1 °F 34% 30.05 in 10.0 mi East 6.9 mph - N/A   Clear
6:14 PM 63.5 °F - 34.2 °F 33% 30.05 in 10.0 mi East 3.5 mph - N/A   Clear
6:34 PM 64.4 °F - 34.2 °F 32% 30.05 in 10.0 mi ENE 4.6 mph - N/A   Clear
6:54 PM 65.1 °F - 33.8 °F 31% 30.04 in 10.0 mi East 4.6 mph - N/A   Clear
7:14 PM 64.8 °F - 34.3 °F 32% 30.04 in 10.0 mi ENE 5.8 mph - N/A   Clear
7:34 PM 63.9 °F - 33.6 °F 32% 30.04 in 10.0 mi ENE 4.6 mph - N/A   Clear
7:54 PM 62.6 °F - 33.4 °F 34% 30.04 in 10.0 mi ENE 3.5 mph - N/A   Clear
8:14 PM 61.0 °F - 33.8 °F 36% 30.04 in 10.0 mi NE 3.5 mph - N/A   Clear
8:34 PM 59.9 °F - 32.5 °F 36% 30.04 in 10.0 mi ENE 3.5 mph - N/A   Clear
8:54 PM 58.1 °F - 33.4 °F 39% 30.04 in 10.0 mi ENE 5.8 mph - N/A   Clear
9:14 PM 56.3 °F - 33.8 °F 43% 30.04 in 10.0 mi NE 3.5 mph - N/A   Clear
9:34 PM 54.5 °F - 33.4 °F 45% 30.05 in 10.0 mi NE 3.5 mph - N/A   Clear
9:54 PM 55.4 °F - 32.2 °F 41% 30.05 in 10.0 mi Calm Calm - N/A   Clear
10:14 PM 53.4 °F - 34.3 °F 48% 30.05 in 10.0 mi Calm Calm - N/A   Clear
10:34 PM 55.0 °F - 32.0 °F 42% 30.05 in 10.0 mi Calm Calm - N/A   Clear
10:54 PM 53.1 °F - 32.2 °F 45% 30.05 in 10.0 mi Calm Calm - N/A   Clear
11:14 PM 53.4 °F - 33.1 °F 46% 30.05 in 10.0 mi Calm Calm - N/A   Clear
11:34 PM 49.1 °F - 34.0 °F 56% 30.05 in 10.0 mi Calm Calm - N/A   Clear
11:54 PM 47.3 °F - 33.8 °F 59% 30.05 in 10.0 mi Calm Calm - N/A   Clear